Wetbulb
54.43 51.82 49.13 51.84 53.54 53.37 52.92 52.09 50.87 53.15 55.11 53.81 53.11 53.20 54.98 56.50 56.16 55.83 56.28 57.59 58.69 59.19 60.31 61.55 62.46 63.24 62.63 62.23 62.84 63.41 63.77 65.52 65.50 65.39 64.91 64.57 65.96 63.67 65.62 64.33 64.91 64.66 65.76 65.58
52.31 49.42 53.19 54.13 53.75 53.13 52.90 51.64 50.80 53.36 55.15 53.92 53.42 52.45 54.59 55.22 55.65 56.25 56.58 57.51 58.56 59.58 59.67 60.45 61.88 62.86 62.68 62.24 60.87 62.96 63.82 65.12 66.43 67.21 67.44 65.87 65.40 64.94 65.33 65.54 65.55 65.22 64.94 65.83
49.61 52.33 54.33 53.19 52.53 51.92 52.34 51.16 51.22 51.31 53.84 54.83 52.92 50.76 52.59 54.97 56.04 56.34 56.93 58.14 59.31 59.84 59.46 60.04 60.98 62.28 62.72 61.71 62.42 62.77 64.04 65.39 67.13 67.32 67.31 67.80 66.85 67.14 66.18 63.47 64.15 65.46 65.18 65.36
51.19 54.12 52.87 52.07 51.78 53.09 50.05 53.65 52.73 51.63 50.73 46.85 52.92 44.63 51.01 53.37 53.24 54.64 55.85 57.59 58.52 59.92 60.51 60.45 60.87 61.86 62.36 61.61 63.26 64.00 64.58 65.43 66.54 67.11 66.35 66.27 65.56 64.24 65.74 65.28 64.16 64.52 65.95 65.30
49.21 51.36 51.85 51.12 52.15 54.13 51.65 54.23 52.81 52.22 50.30 49.82 49.27 46.94 49.83 52.87 51.30 52.73 55.09 56.71 59.47 60.53 60.44 60.06 60.57 62.14 62.04 61.76 63.02 64.39 65.31 64.91 66.04 66.27 66.27 67.44 64.90 65.99 66.49 66.37 62.59 64.92 65.33 65.54
50.68 54.68 53.64 53.25 54.48 54.86 55.20 52.71 52.26 52.01 50.26 44.03 48.03 47.50 47.72 50.18 50.94 52.29 54.86 56.85 59.26 60.03 60.24 60.62 61.68 62.43 61.20 61.69 63.04 64.21 64.95 64.07 65.71 66.23 65.66 65.64 65.08 64.13 62.30 64.72 64.01 64.04 65.19 66.68
49.59 50.54 54.01 54.95 52.76 54.74 53.48 50.85 44.35 42.75 43.55 42.23 49.66 47.29 49.08 52.77 52.73 53.41 54.68 57.03 60.43 60.11 59.95 60.00 60.48 60.65 60.53 60.95 62.06 63.52 64.28 63.34 64.02 65.18 64.84 65.07 65.53 65.27 63.50 64.41 62.79 62.08 64.78 64.96
45.79 44.53 51.60 55.04 53.52 51.46 51.18 50.37 44.76 38.71 41.32 44.64 49.91 44.92 49.50 53.85 54.57 55.43 57.43 59.72 60.89 59.92 59.91 60.17 60.75 60.73 59.93 61.12 61.44 62.55 63.11 62.99 63.74 64.12 64.53 65.08 66.23 66.15 64.22 65.02 63.63 64.64 65.64 65.32
46.73 47.20 52.79 54.23 54.82 54.04 51.08 47.97 51.87 47.39 48.25 45.05 47.32 50.31 53.16 53.60 53.28 55.56 57.39 58.56 59.41 59.59 59.71 59.96 60.81 61.21 60.03 61.19 61.73 62.47 62.86 63.26 63.22 63.73 64.72 64.50 65.71 66.01 64.65 64.96 66.04 64.30 65.46 66.43
51.79 47.00 52.00 52.81 54.86 54.48 52.61 53.42 46.80 47.91 40.80 39.88 45.27 46.80 48.29 50.73 52.22 56.14 57.69 58.27 58.92 59.29 59.34 60.19 60.74 61.07 60.27 61.53 62.64 63.21 63.11 62.31 63.01 63.61 64.01 63.68 65.01 66.21 66.24 65.51 63.66 62.74 63.62 64.32
51.89 51.34 50.19 52.58 51.04 50.03 49.90 48.82 50.55 50.45 48.22 42.91 41.90 45.76 53.74 52.81 53.54 54.46 57.98 59.17 58.87 58.91 59.17 60.01 60.87 61.28 60.36 61.17 62.21 63.20 63.14 61.47 62.69 63.25 63.65 63.62 64.22 65.06 65.01 65.23 64.79 65.43 65.46 62.94
52.99 52.00 48.04 49.38 53.66 54.61 52.88 50.29 51.27 46.26 45.08 47.80 47.25 47.18 55.02 54.92 55.12 56.88 57.79 59.60 59.53 59.65 59.72 60.40 60.84 60.74 59.66 60.64 61.77 62.51 63.14 61.19 61.68 62.76 63.24 62.63 63.74 64.79 65.27 65.34 65.61 65.47 65.58 64.86
53.46 50.41 46.55 48.29 51.06 53.12 50.62 51.35 51.51 52.17 51.70 47.47 44.71 46.54 55.82 56.20 55.42 56.82 57.87 59.59 59.60 59.48 59.75 60.35 60.58 60.05 58.93 60.43 61.05 61.75 62.84 61.53 60.64 60.85 62.59 62.84 62.76 64.02 64.73 65.37 65.20 66.58 66.23 66.24
55.35 52.38 49.02 45.81 48.54 50.66 48.34 49.61 50.92 50.69 47.31 47.18 47.85 49.46 52.96 54.58 54.62 56.48 58.52 59.93 60.43 59.60 59.51 59.99 60.47 59.99 58.92 60.57 60.62 61.29 62.30 62.15 60.19 59.76 60.74 62.24 62.48 63.45 64.30 65.07 65.01 65.13 66.21 65.95
55.02 50.03 50.28 50.52 51.20 50.96 49.98 49.27 49.71 48.92 49.66 47.56 49.48 50.02 52.88 54.80 55.79 56.48 59.19 60.10 59.97 59.42 58.99 59.75 60.36 60.21 59.16 60.23 60.70 61.13 62.21 61.95 60.27 59.55 59.70 61.21 62.75 63.17 63.89 64.89 65.12 64.79 65.06 65.73
56.15 49.76 50.64 48.23 50.15 50.34 48.91 50.24 50.35 49.66 50.20 50.23 50.97 50.97 55.51 56.63 56.78 57.10 57.95 59.79 59.31 59.67 59.32 59.70 60.79 60.69 59.47 59.60 60.27 60.83 62.06 61.68 60.52 59.97 59.49 60.29 61.59 61.78 62.55 64.41 64.70 64.86 64.16 63.81
51.35 50.83 49.14 45.21 48.76 48.25 46.23 49.31 49.94 50.28 50.94 50.88 48.44 52.54 55.74 54.73 55.68 56.56 58.06 59.26 59.55 60.31 60.37 60.09 60.88 61.16 60.37 59.93 61.13 60.94 61.94 62.23 60.77 60.50 60.39 59.53 60.36 60.82 61.91 62.62 63.47 63.70 64.33 64.99
52.34 51.44 49.71 45.82 47.56 40.14 48.89 52.91 52.50 51.42 51.97 53.09 53.01 54.03 55.56 55.94 56.95 57.52 58.21 59.57 60.51 61.11 61.56 61.19 61.56 62.29 61.76 61.17 61.31 62.21 62.29 61.96 60.65 60.54 60.64 59.67 58.76 59.80 61.35 61.67 62.52 64.15 64.62 64.36
54.70 52.93 46.92 44.75 44.83 47.05 48.76 50.82 50.71 49.99 49.87 54.14 53.83 54.86 55.80 56.36 56.92 57.09 59.07 60.17 62.05 62.54 63.13 63.08 62.92 63.48 62.90 61.47 61.53 61.99 61.65 61.72 60.57 60.36 60.74 60.19 58.77 59.13 60.37 61.21 62.84 64.35 64.43 64.85
52.61 53.01 49.91 47.13 42.77 40.08 48.72 52.14 54.35 54.09 47.71 54.29 54.80 54.92 55.31 55.96 51.41 54.54 59.87 60.71 62.07 63.34 63.99 64.22 63.92 63.82 63.98 62.86 62.47 61.79 61.34 61.13 60.49 60.69 61.06 61.20 59.81 59.35 59.97 62.25 63.78 64.67 64.68 64.17
45.89 48.27 45.82 44.57 44.80 47.06 52.44 54.10 55.12 46.36 48.67 57.01 55.81 56.04 56.31 55.25 56.38 59.79 60.66 61.12 62.44 63.70 64.05 65.32 64.80 64.06 65.66 64.60 64.14 61.80 61.34 61.06 61.51 61.38 61.61 61.62 61.25 60.91 61.99 64.45 65.05 64.07 63.25 63.47
44.43 45.05 44.77 46.16 43.29 42.29 55.08 54.14 50.30 54.90 57.57 57.87 57.44 57.84 57.55 58.64 59.06 59.60 60.53 61.40 62.93 63.22 63.88 64.82 64.40 63.88 66.13 64.32 63.04 61.67 62.47 62.50 62.23 61.69 61.10 61.59 61.97 60.69 61.08 63.70 63.70 62.85 63.88 62.96
44.25 48.38 46.95 48.38 48.23 56.28 56.70 56.61 58.72 58.89 57.82 58.13 58.69 59.56 59.66 59.33 59.13 59.67 60.25 62.28 62.52 63.51 64.08 64.78 64.73 64.43 65.02 65.10 63.71 62.86 63.95 62.41 61.98 61.66 61.28 61.94 62.16 60.84 61.74 62.19 62.34 60.67 62.39 60.23
48.22 51.71 49.52 50.27 52.59 54.33 55.84 57.45 59.11 59.06 58.73 59.27 60.31 60.88 60.82 60.29 60.46 60.63 61.47 62.60 63.09 63.80 64.19 64.58 64.63 64.03 64.16 65.32 64.86 64.29 63.34 62.73 61.78 61.82 62.52 62.61 62.45 60.67 62.03 61.76 61.63 60.26 59.61 59.04
46.61 49.62 48.63 49.91 52.21 54.02 55.37 56.92 57.97 58.85 59.98 60.24 61.19 61.66 61.29 61.23 61.17 61.76 62.09 62.54 62.93 64.02 64.50 64.54 64.28 64.37 64.33 65.18 64.74 64.70 64.35 63.35 63.21 64.09 63.45 63.70 62.32 62.24 61.99 62.10 60.98 59.89 62.10 59.33
46.97 46.37 45.29 47.06 52.78 52.98 52.93 56.29 56.99 56.59 57.90 59.45 59.97 60.19 61.12 62.05 61.53 62.46 62.22 63.03 63.36 63.27 64.37 64.50 64.53 64.71 64.87 65.13 64.87 64.91 64.73 64.26 64.85 64.17 63.13 62.10 61.72 61.47 60.15 60.01 60.32 46.89 48.38 46.29
MSLP
1002.86 1002.17 1000.86 1000.34 1000.62 1000.54 1000.02 999.45 999.07 999.12 999.62 1000.02 1000.32 1000.38 1000.02 999.81 999.85 999.62 999.91 1000.54 1001.42 1002.71 1004.19 1005.70 1006.96 1007.68 1008.34 1008.82 1009.02 1009.18 1009.32 1009.46 1009.45 1008.80 1008.75 1008.47 1008.84 1008.77 1008.70 1008.95 1008.84 1008.68 1008.39 1008.12
1001.67 1000.02 1000.03 1000.65 1000.40 1000.09 999.81 999.42 999.23 999.46 999.60 1000.24 1000.44 1000.24 999.73 999.37 999.00 998.88 999.12 999.79 1000.82 1002.32 1003.79 1005.19 1006.57 1007.46 1008.05 1008.41 1008.77 1008.99 1009.15 1009.36 1009.21 1009.34 1009.18 1008.99 1008.86 1008.94 1008.95 1008.68 1008.65 1008.15 1008.11 1007.96
999.20 998.93 999.74 999.35 999.32 999.24 999.21 999.19 999.27 999.45 999.49 1000.01 1000.41 999.49 998.86 998.04 998.42 998.42 998.72 999.61 1000.15 1001.70 1003.25 1004.79 1006.13 1007.10 1007.73 1008.15 1008.55 1008.76 1009.08 1009.20 1009.28 1009.27 1009.03 1009.22 1008.98 1009.13 1009.04 1008.94 1008.62 1008.40 1008.12 1007.97
998.39 998.11 997.91 998.19 998.00 998.42 998.26 999.00 999.50 999.70 999.94 999.75 999.72 998.65 998.41 997.66 997.63 997.70 997.83 998.56 999.78 1001.22 1002.83 1004.30 1005.62 1006.68 1007.34 1007.74 1008.34 1008.68 1008.93 1009.02 1009.02 1009.14 1008.54 1009.00 1009.11 1008.95 1009.07 1009.02 1009.14 1008.88 1008.38 1008.37
996.17 996.75 996.53 996.73 996.84 997.57 997.64 998.63 999.00 999.71 1000.24 1000.17 999.69 998.91 997.61 997.15 996.98 997.26 997.45 997.76 999.32 1000.69 1002.31 1003.71 1005.08 1006.17 1006.90 1007.53 1008.14 1008.53 1008.72 1008.90 1009.05 1009.13 1009.05 1008.84 1009.12 1009.15 1009.16 1009.04 1009.23 1009.05 1008.88 1008.70
996.11 995.95 995.67 995.56 996.40 997.04 997.90 998.61 999.18 999.56 1000.00 999.59 999.19 998.58 997.05 996.25 996.35 997.05 997.36 997.97 999.06 1000.49 1002.05 1003.47 1004.78 1005.80 1006.55 1007.35 1007.87 1008.35 1008.54 1008.83 1008.90 1008.83 1009.08 1008.96 1009.16 1009.21 1009.17 1009.13 1009.23 1009.32 1009.14 1008.91
994.96 994.32 994.77 994.86 995.63 996.67 997.38 998.09 998.69 999.37 999.29 998.49 997.97 997.63 996.67 996.62 996.69 997.20 997.70 998.11 999.23 1000.57 1001.89 1003.25 1004.40 1005.37 1006.29 1007.01 1007.63 1008.09 1008.31 1008.69 1008.79 1008.78 1008.99 1008.99 1008.69 1009.10 1009.34 1009.33 1009.41 1009.61 1009.39 1009.33
993.30 993.28 993.34 993.63 994.58 995.36 996.41 997.65 997.73 998.02 997.54 996.61 996.87 996.92 996.35 996.45 996.95 997.62 998.01 998.76 999.33 1000.70 1001.86 1003.10 1004.13 1005.05 1006.00 1006.77 1007.40 1007.61 1008.14 1008.53 1008.68 1008.76 1008.99 1009.07 1009.04 1009.18 1009.27 1009.54 1009.62 1009.75 1009.63 1009.74
991.91 991.84 993.03 993.42 994.58 995.12 995.60 996.71 997.62 997.76 997.19 996.69 996.25 995.92 996.18 996.49 996.96 997.14 997.86 998.96 999.79 1000.78 1001.90 1002.99 1003.94 1004.92 1005.70 1006.53 1007.23 1007.63 1007.95 1008.34 1008.57 1008.81 1009.07 1009.18 1009.20 1009.31 1009.57 1009.84 1009.90 1010.09 1009.78 1009.74
991.05 991.68 991.79 992.85 994.25 994.77 994.71 996.31 997.10 997.30 997.15 996.62 995.80 995.32 995.08 996.06 996.18 996.74 997.73 998.90 999.95 1000.86 1001.89 1002.86 1003.76 1004.79 1005.51 1006.31 1007.10 1007.59 1008.00 1008.26 1008.54 1008.72 1008.91 1009.09 1009.19 1009.41 1009.64 1009.78 1009.92 1010.21 1010.36 1010.48
991.60 991.19 991.29 992.00 992.80 993.33 994.28 994.76 995.81 996.53 996.57 996.07 995.53 994.68 994.48 995.29 995.91 996.61 997.03 998.46 999.78 1000.62 1001.49 1002.51 1003.43 1004.57 1005.29 1006.09 1006.69 1007.42 1007.78 1008.09 1008.48 1008.69 1009.02 1009.15 1009.17 1009.39 1009.49 1009.47 1009.81 1009.81 1010.13 1010.89
990.43 991.20 990.86 990.83 991.95 993.27 993.62 994.18 995.00 995.66 996.33 995.96 995.14 994.62 994.78 995.65 995.92 996.44 996.75 997.77 999.34 1000.29 1001.17 1002.06 1002.94 1004.14 1004.85 1005.70 1006.23 1007.08 1007.47 1007.75 1008.23 1008.59 1008.91 1009.24 1009.29 1009.48 1009.52 1009.60 1009.85 1010.23 1010.28 1010.61
990.70 990.78 991.03 990.85 992.21 992.59 992.99 993.52 994.33 995.20 995.76 995.07 994.99 994.50 994.29 995.04 995.84 996.34 996.61 997.35 998.75 999.92 1000.78 1001.64 1002.50 1003.51 1004.33 1005.18 1005.76 1006.44 1007.08 1007.43 1007.92 1008.38 1008.89 1009.32 1009.47 1009.66 1009.88 1009.82 1010.13 1010.07 1010.42 1010.53
990.80 990.36 990.33 989.08 989.86 991.79 992.71 992.89 993.73 994.60 994.70 995.10 994.45 993.82 994.19 994.80 995.35 995.80 996.33 997.11 998.18 999.41 1000.31 1001.26 1002.08 1002.92 1003.79 1004.64 1005.28 1005.84 1006.56 1007.09 1007.72 1008.16 1008.79 1009.32 1009.56 1009.79 1010.01 1010.10 1010.12 1010.18 1010.33 1010.72
989.99 990.08 990.48 990.41 990.35 991.21 991.81 992.40 992.72 993.12 993.81 994.03 994.04 993.72 993.65 993.81 994.45 995.16 995.68 996.69 997.69 998.83 999.66 1000.65 1001.54 1002.38 1003.30 1004.16 1004.82 1005.41 1006.10 1006.75 1007.55 1007.95 1008.55 1009.28 1009.64 1009.87 1010.04 1010.13 1010.09 1010.20 1010.43 1010.61
989.73 990.13 990.68 990.64 990.69 990.33 991.03 991.67 992.12 992.37 992.80 993.39 993.55 993.20 993.12 993.34 993.95 994.34 995.04 995.95 997.03 998.05 998.92 1000.04 1001.01 1001.81 1002.69 1003.59 1004.34 1004.98 1005.71 1006.43 1007.28 1007.73 1008.30 1009.11 1009.53 1009.76 1010.12 1010.41 1010.55 1010.55 1010.65 1010.85
989.87 990.17 990.79 990.23 990.47 990.30 989.66 989.91 990.78 991.56 992.03 992.38 992.58 993.06 993.14 993.19 993.54 993.89 994.31 995.09 996.27 997.20 998.21 999.30 1000.19 1001.09 1002.09 1002.99 1003.92 1004.65 1005.37 1006.17 1006.98 1007.43 1007.89 1008.65 1009.22 1009.60 1010.03 1010.37 1010.63 1010.85 1011.04 1011.21
989.74 990.41 990.48 990.35 990.35 989.21 988.95 989.50 989.99 990.58 991.22 991.74 992.35 992.42 992.54 992.76 992.98 993.27 993.99 994.36 995.61 996.38 997.38 998.47 999.53 1000.58 1001.66 1002.54 1003.57 1004.39 1005.07 1005.81 1006.50 1007.01 1007.37 1008.14 1008.82 1009.30 1009.83 1010.18 1010.53 1011.07 1011.48 1011.62
989.95 990.37 990.17 989.79 989.52 989.73 988.89 989.16 989.29 989.69 990.27 991.01 991.52 991.98 992.09 992.41 992.53 992.61 993.18 993.55 994.62 995.69 996.49 997.56 998.69 1000.04 1001.22 1002.08 1003.10 1003.87 1004.60 1005.33 1005.90 1006.39 1006.86 1007.56 1008.23 1008.92 1009.60 1010.09 1010.62 1011.15 1011.53 1011.77
990.80 990.56 990.62 989.79 988.97 988.11 988.21 988.62 989.24 989.55 989.19 990.25 990.88 991.33 991.53 991.98 991.62 991.68 992.60 993.23 993.88 995.00 995.86 996.83 998.07 999.57 1000.80 1001.78 1002.66 1003.38 1003.98 1004.64 1005.15 1005.65 1006.27 1007.03 1007.69 1008.43 1009.17 1009.84 1010.52 1011.11 1011.48 1011.70
990.83 990.71 989.97 989.52 989.10 988.05 987.76 987.92 989.14 988.87 988.74 989.39 990.20 990.77 991.14 991.33 991.32 991.53 992.13 992.66 993.56 994.53 995.39 996.31 997.56 998.79 1000.09 1001.34 1002.14 1002.72 1003.30 1003.92 1004.54 1005.02 1005.75 1006.57 1007.31 1008.13 1008.88 1009.63 1010.42 1011.00 1011.34 1011.41
990.27 989.98 989.41 989.36 988.71 987.70 987.62 987.85 988.40 989.00 989.01 988.97 989.67 990.10 990.62 990.97 991.38 991.60 992.01 992.34 993.23 994.17 994.89 995.99 997.13 998.31 999.67 1000.95 1001.78 1002.28 1002.57 1003.33 1004.00 1004.49 1005.16 1006.09 1007.12 1007.86 1008.65 1009.50 1010.17 1010.77 1011.13 1011.29
990.02 989.50 989.15 988.57 988.57 988.32 987.74 988.16 988.24 989.04 989.21 989.51 989.55 989.93 990.17 990.52 990.94 991.24 991.91 992.77 993.28 993.93 994.90 995.78 996.64 997.90 999.17 1000.27 1001.07 1001.65 1002.13 1002.83 1003.47 1004.04 1004.73 1005.63 1006.81 1007.66 1008.41 1009.25 1009.86 1010.38 1010.86 1010.87
991.27 990.27 989.52 989.33 988.60 988.48 988.50 988.81 989.12 989.63 989.65 989.73 989.90 989.95 990.23 990.28 990.61 990.96 991.77 992.70 993.19 993.82 994.54 995.35 996.17 997.28 998.38 999.55 1000.31 1001.16 1001.90 1002.46 1002.91 1003.64 1004.43 1005.33 1006.33 1007.24 1007.99 1008.83 1009.46 1009.63 1010.15 1010.33
994.32 992.18 990.66 989.73 988.83 988.96 989.00 989.28 989.76 989.78 989.78 989.93 990.65 990.35 990.11 990.38 990.61 991.22 991.75 992.54 993.02 993.52 994.39 995.13 995.77 996.55 997.60 998.79 999.79 1000.63 1001.18 1001.85 1002.41 1003.15 1003.94 1004.81 1005.75 1006.79 1007.40 1007.98 1008.34 1008.86 1009.44 1009.68
994.55 993.88 991.99 990.13 989.49 989.71 989.74 990.09 990.41 990.50 990.33 990.49 990.82 990.64 990.36 990.48 990.61 991.17 991.61 992.32 992.86 993.27 993.95 994.72 995.42 996.07 996.82 997.94 998.97 999.81 1000.36 1001.05 1001.84 1002.55 1003.29 1004.05 1004.70 1005.92 1006.52 1007.35 1007.83 1008.52 1008.82 1009.45
Wind_Speed
24 19 26 33 28 25 23 18 17 11 8 13 13 17 19 15 15 17 15 11 11 13 13 14 12 9 7 5 4 3 3 4 6 6 7 4 3 4 2 3 6 8 7 6
22 27 28 28 27 26 23 21 15 14 12 9 13 19 20 19 18 15 14 9 11 12 14 14 13 11 8 5 3 3 1 4 5 5 5 5 4 3 5 4 4 3 7 4
31 26 28 27 27 25 23 21 17 18 12 9 14 23 20 7 10 10 8 8 9 13 15 15 14 12 9 7 5 3 2 2 4 4 2 2 3 0 2 4 6 4 1 4
29 27 27 30 27 25 22 19 18 14 13 13 14 14 15 17 6 10 12 13 10 12 15 15 14 13 10 8 6 5 3 1 3 7 4 4 3 3 3 4 2 5 5 4
29 26 28 27 29 26 20 18 17 14 15 18 18 12 14 10 10 6 5 3 10 13 16 16 15 13 11 8 8 5 4 3 2 4 7 6 6 5 2 3 4 8 4 3
31 28 25 27 27 19 19 17 17 11 11 16 19 15 15 10 3 2 5 4 8 12 15 16 15 13 11 9 8 6 5 3 1 4 6 6 7 7 4 5 3 5 4 5
28 33 27 22 20 22 23 14 12 13 14 14 18 13 9 13 3 3 5 6 9 11 15 16 16 14 12 11 10 8 6 5 2 4 5 6 6 7 7 4 6 4 4 6
23 29 30 23 25 23 21 19 13 15 14 14 11 7 3 4 5 3 2 4 8 13 15 16 16 13 13 12 10 7 7 6 4 4 5 6 10 7 6 7 3 4 6 7
24 28 26 26 22 25 19 22 20 22 19 14 6 8 10 7 8 8 2 2 9 14 16 16 16 13 12 12 10 8 7 6 5 5 4 5 7 9 8 6 7 5 3 7
16 19 25 28 20 25 23 18 20 15 19 17 13 11 4 11 10 8 7 7 14 15 16 15 15 13 12 12 10 9 7 7 6 5 4 5 5 8 7 5 5 4 6 9
30 18 23 26 26 26 21 22 17 16 14 13 11 8 8 6 5 2 9 12 15 16 16 16 15 13 13 12 12 10 8 8 7 6 5 5 6 7 6 6 7 5 8 8
32 14 18 28 24 25 25 26 22 11 18 12 13 2 11 7 5 7 4 12 16 16 16 16 15 15 14 13 12 11 9 9 8 7 7 6 5 7 6 7 8 7 6 9
27 18 18 23 21 25 27 24 23 19 14 15 12 13 13 13 7 5 6 11 16 17 17 16 15 15 15 14 13 12 10 9 9 9 8 7 6 7 7 6 9 7 9 8
23 20 26 20 25 21 26 25 25 23 17 16 16 16 14 11 11 11 8 9 14 17 18 16 15 15 15 14 13 13 11 10 9 9 10 8 8 7 8 7 10 7 9 11
27 26 26 26 21 25 22 27 27 28 23 21 17 18 15 11 13 11 12 10 13 17 20 18 16 15 15 15 14 13 12 11 10 10 10 9 9 8 8 8 7 9 8 9
22 24 23 26 25 24 27 26 26 27 25 23 21 17 11 8 9 13 11 13 12 16 20 19 18 17 17 17 15 14 13 13 12 10 11 11 10 10 9 8 7 8 8 9
23 19 24 22 24 26 24 27 27 24 22 21 21 20 18 12 13 12 11 12 12 15 18 21 20 18 16 17 15 15 14 14 13 12 12 12 12 11 11 10 10 9 8 7
22 22 18 20 23 28 19 22 22 24 21 21 19 19 18 17 15 12 14 14 13 14 18 20 18 17 17 17 17 15 15 15 14 13 13 12 13 12 12 11 10 9 8 8
20 19 15 16 19 16 25 17 23 22 21 21 21 19 18 15 15 16 15 14 16 14 15 17 19 18 17 18 18 17 16 16 15 15 13 13 13 13 13 12 11 10 9 9
13 12 14 14 18 25 18 22 14 18 22 21 21 19 17 16 15 11 15 14 13 14 13 15 19 20 18 18 18 18 17 17 16 16 15 14 13 14 14 12 11 10 9 9
17 17 20 15 14 16 16 15 14 21 13 20 21 21 19 16 14 10 10 17 15 14 15 15 18 19 18 18 18 19 18 18 16 15 15 14 13 13 12 11 10 10 10 9
20 19 16 17 16 18 19 13 24 7 1 15 15 17 17 18 17 13 9 5 14 15 15 16 16 18 18 19 18 19 18 18 17 16 16 15 14 11 11 12 11 11 9 8
22 18 14 16 13 5 11 14 10 9 8 6 7 10 11 15 16 15 13 9 10 15 14 16 16 18 18 20 19 19 17 19 18 16 16 16 15 13 13 13 12 11 10 9
17 12 17 14 17 12 6 10 9 11 11 11 9 7 7 13 14 12 14 11 12 16 15 14 17 18 19 19 20 18 18 19 19 17 15 14 15 14 13 11 11 11 11 11
12 18 15 17 13 16 13 9 9 9 8 2 2 9 9 8 9 14 13 12 12 14 14 13 15 17 19 19 20 20 19 19 17 16 15 14 14 13 12 12 12 12 11 11
15 13 12 10 13 6 6 12 10 10 9 11 9 12 8 10 12 12 12 12 13 15 15 14 14 15 18 19 20 20 21 20 17 15 14 14 14 14 13 12 11 5 1 13
Wind_Direction
204 211 208 212 219 229 247 258 253 242 245 250 277 277 285 283 270 270 252 243 230 208 200 185 187 184 182 205 228 253 335 343 321 334 338 17 356 338 59 285 269 253 265 242
204 221 214 217 222 231 241 252 255 262 259 268 291 283 290 282 276 267 249 240 218 197 193 177 183 188 187 188 194 205 318 3 332 5 352 354 334 32 17 1 9 12 210 192
217 214 220 212 224 222 228 243 244 261 271 241 270 266 256 254 269 244 234 255 213 193 190 180 183 187 183 190 178 152 91 23 19 352 71 32 333 320 20 29 25 38 94 176
219 223 209 225 217 223 228 227 247 269 276 267 274 283 294 272 263 256 232 198 207 179 182 180 183 184 186 177 165 153 122 17 82 6 15 10 18 20 51 40 35 18 49 83
218 219 217 212 223 219 232 235 239 227 252 270 263 262 272 266 218 249 248 257 152 168 178 178 182 177 176 166 165 168 143 107 54 40 6 28 36 21 31 75 33 59 68 90
229 213 223 220 215 217 225 226 255 266 260 256 256 253 265 271 122 306 303 176 155 169 170 171 174 170 168 176 163 168 150 123 263 18 41 21 60 53 29 47 34 76 45 48
211 228 211 225 213 212 220 208 227 227 231 248 246 237 288 300 315 334 331 323 143 161 168 168 172 171 167 173 166 171 166 138 158 66 49 24 16 81 67 73 76 56 69 41
209 211 214 201 211 210 204 212 226 219 233 246 138 225 261 216 61 264 291 352 135 167 165 169 172 171 173 171 172 186 168 156 163 88 61 45 35 65 77 91 120 70 55 54
202 216 202 202 201 221 186 214 225 255 285 289 213 208 196 190 211 197 160 171 153 164 163 171 169 172 174 171 173 175 161 152 161 121 99 72 70 77 93 96 60 65 81 86
209 211 218 196 204 218 221 199 217 228 247 262 243 234 243 166 210 117 149 164 159 163 165 171 170 172 175 174 168 178 174 166 163 138 136 105 93 109 105 94 109 91 78 60
231 212 200 186 196 205 202 224 203 246 225 238 249 261 116 148 155 331 146 158 169 170 171 172 172 171 177 174 172 179 186 160 164 153 133 134 105 101 102 92 75 64 108 98
214 215 228 199 199 209 214 210 206 217 221 251 276 242 111 159 204 181 193 154 172 178 174 173 173 172 176 178 169 176 183 172 172 161 146 136 129 112 101 95 97 102 87 115
203 211 219 197 201 201 223 210 217 219 245 235 220 236 181 165 195 191 237 152 171 181 176 174 176 177 180 179 178 172 179 178 171 167 149 144 143 122 109 94 96 115 117 97
200 211 212 215 198 191 207 222 204 217 217 229 243 261 153 173 196 212 184 164 180 184 177 178 183 180 183 180 183 176 179 169 172 171 159 151 148 138 134 140 122 129 120 127
191 219 207 228 204 199 204 214 216 212 219 224 227 233 246 214 190 215 178 179 179 188 181 185 186 184 185 179 184 183 176 166 174 175 157 162 155 155 150 142 134 120 125 120
188 214 215 217 229 203 203 210 222 223 222 223 233 244 225 195 243 193 202 166 194 191 191 190 188 186 186 181 186 180 179 167 174 177 161 168 168 165 153 146 142 140 129 128
185 209 211 219 213 227 222 206 212 221 223 225 225 229 245 232 208 230 202 176 201 194 197 194 190 188 186 182 186 178 179 172 176 182 164 167 174 169 165 163 154 146 137 137
193 202 200 213 221 217 226 220 218 219 222 220 229 236 229 233 232 205 229 195 199 201 195 196 189 188 184 182 183 178 180 178 181 187 174 169 174 174 171 171 160 151 151 148
207 195 209 213 206 216 219 220 224 214 223 215 218 220 235 243 222 228 211 215 183 207 195 196 190 186 181 183 181 178 184 183 185 188 182 176 176 173 176 176 163 166 166 164
213 215 224 204 211 208 208 200 212 223 225 215 214 223 227 222 228 221 195 213 199 192 199 188 187 179 181 184 179 183 187 187 190 189 185 180 177 174 178 177 170 173 176 176
197 208 213 220 213 225 206 180 176 216 216 207 215 222 220 223 233 236 207 207 207 188 200 182 182 182 178 183 180 188 189 192 192 189 183 178 176 173 176 170 170 176 188 176
198 200 206 211 200 220 195 202 181 192 159 175 192 213 213 223 226 234 225 195 180 191 190 174 180 184 177 186 185 193 191 190 192 190 182 176 171 181 170 173 177 182 191 182
206 208 204 214 207 205 195 191 158 186 192 194 182 198 207 212 219 218 213 200 206 191 180 184 180 181 180 190 192 197 190 189 192 191 183 174 170 188 167 177 178 184 187 191
250 260 215 206 205 144 159 183 161 212 236 215 188 222 203 224 218 195 198 196 193 184 182 185 182 182 186 193 197 200 190 191 190 190 182 176 174 184 171 181 183 193 185 198
241 245 265 212 221 197 177 165 197 204 222 254 221 262 210 195 201 198 179 200 200 190 179 186 190 189 190 193 199 199 194 191 192 185 181 181 182 183 175 194 184 198 185 202
241 240 258 227 193 237 185 200 231 256 240 236 245 249 232 205 195 189 189 193 200 197 189 189 192 201 194 191 197 200 199 190 190 186 184 185 186 177 189 193 189 178 292 189